Weather History for KLPR - January, 2013

Change the Weather History Date:

Tuesday, January 29, 2013

  Actual Average (KCLE) Record (KCLE)
Temperature  
Mean Temperature 50 °F 28 °F  
Max Temperature 61 °F 35 °F 65 °F (1914)
Min Temperature 39 °F 22 °F -17 °F (1873)
Degree Days  
Heating Degree Days 15 37  
Month to date heating degree days 1072  
Since 1 July heating degree days 3179  
Cooling Degree Days 0 0  
Month to date cooling degree days 0  
Year to date cooling degree days 0  
Moisture  
Dew Point 49 °F    
Average Humidity 92    
Maximum Humidity 100    
Minimum Humidity 69    
Precipitation  
Precipitation 0.10 in 0.08 in 0.49 in (1968)
Month to date precipitation 2.57  
Year to date precipitation 2.57  
Snow  
Snow 0.00 in 0.60 in - ()
Month to date snowfall 17.5  
Since 1 July snowfall 36.1  
Snow Depth -    
Sea Level Pressure  
Sea Level Pressure 29.87 in    
Wind  
Wind Speed 9 mph (South)    
Max Wind Speed 22 mph    
Max Gust Speed 30 mph    
Visibility 4 miles    
Events Fog , Rain , Thunderstorm    
T = Trace of Precipitation, MM = Missing Value Source: NWS Daily Summary

Daily Weather History Graph

Daily Weather History Graph

Search for Another Location

Airport or City:

Trip Planner

Search our weather history database for the weather conditions in past years. The results will help you decide how hot, cold, wet, or windy it might be!

Date:

Astronomy

Jan. 29, 2013 Rise Set
Actual Time 7:42 AM EST 5:41 PM EST
Civil Twilight 7:13 AM EST 6:11 PM EST
Nautical Twilight 6:40 AM EST 6:44 PM EST
Astronomical Twilight 6:07 AM EST 7:16 PM EST
Moon 8:39 PM EST (1/29) 8:36 AM EST (1/29)
Length of Visible Light 10h 57m
Length of Day
9h 58m
Waning Gibbous, 94% of the Moon is Illuminated
Jan 29
Waning Gibbous
Feb 3
Last Quarter
Feb 10
New
Feb 17
First Quarter
Feb 25
Full

Hourly Weather History & Observations

Time (EST) Temp. Windchill Dew Point Humidity Pressure Visibility Wind Dir Wind Speed Gust Speed Precip Events Conditions
12:14 AM 46.4 °F 44.3 °F 46.4 °F 100% 30.03 in 0.2 mi WSW 4.6 mph - N/A Fog Fog
12:53 AM 45.0 °F 41.2 °F 45.0 °F 100% 30.05 in 0.2 mi North 6.9 mph - 0.01 in Fog Fog
1:11 AM 42.8 °F 40.1 °F 42.8 °F 100% 30.03 in 0.5 mi NE 4.6 mph - N/A Fog Fog
1:53 AM 39.9 °F 35.8 °F 39.9 °F 100% 30.03 in 0.5 mi ENE 5.8 mph - N/A Fog Fog
2:53 AM 39.0 °F 36.8 °F 39.0 °F 100% 30.03 in 0.8 mi ESE 3.5 mph - N/A   Overcast
3:53 AM 39.0 °F 36.8 °F 39.0 °F 100% 30.01 in 0.5 mi SSE 3.5 mph - N/A Fog Fog
4:53 AM 41.0 °F 37.1 °F 41.0 °F 100% 29.98 in 0.5 mi South 5.8 mph - 0.01 in Fog Fog
5:23 AM 42.8 °F 38.6 °F 42.8 °F 100% 29.95 in 0.2 mi South 6.9 mph - N/A Fog Fog
5:41 AM 44.6 °F 39.7 °F 44.6 °F 100% 29.94 in 0.5 mi South 9.2 mph - N/A Fog Fog
5:51 AM 46.4 °F 42.4 °F 46.4 °F 100% 29.94 in 0.5 mi South 8.1 mph - N/A Fog Fog
5:53 AM 46.0 °F 41.9 °F 46.0 °F 100% 29.95 in 0.8 mi South 8.1 mph - N/A   Overcast
6:06 AM 46.4 °F 41.5 °F 46.4 °F 100% 29.93 in 0.5 mi South 10.4 mph - N/A Fog Fog
6:53 AM 48.0 °F - 48.0 °F 100% 29.94 in 0.8 mi South 10.4 mph - N/A   Overcast
7:06 AM 48.2 °F - 48.2 °F 100% 29.93 in 1.0 mi South 9.2 mph - N/A   Overcast
7:33 AM 48.2 °F - 48.2 °F 100% 29.92 in 2.0 mi South 10.4 mph - N/A   Overcast
7:40 AM 48.2 °F - 48.2 °F 100% 29.92 in 1.8 mi South 10.4 mph - N/A   Overcast
7:49 AM 48.2 °F - 48.2 °F 100% 29.91 in 2.0 mi South 11.5 mph - N/A   Overcast
7:53 AM 48.9 °F - 48.9 °F 100% 29.91 in 1.8 mi South 12.7 mph - N/A   Overcast
8:13 AM 50.0 °F - 48.2 °F 94% 29.90 in 2.0 mi South 12.7 mph - N/A   Overcast
8:24 AM 50.0 °F - 48.2 °F 94% 29.89 in 2.0 mi South 13.8 mph - N/A   Overcast
8:53 AM 51.1 °F - 51.1 °F 100% 29.91 in 2.5 mi SSW 9.2 mph - N/A   Overcast
9:08 AM 51.8 °F - 51.8 °F 100% 29.89 in 3.0 mi SSW 11.5 mph - N/A   Overcast
9:53 AM 55.0 °F - 51.1 °F 86% 29.89 in 5.0 mi SSW 12.7 mph - N/A   Overcast
10:53 AM 55.9 °F - 52.0 °F 87% 29.90 in 6.0 mi SW 19.6 mph 25.3 mph N/A   Overcast
11:44 AM 57.2 °F - 51.8 °F 82% 29.88 in 7.0 mi SW 16.1 mph 24.2 mph N/A   Overcast
11:53 AM 57.9 °F - 53.1 °F 84% 29.88 in 7.0 mi SW 16.1 mph 24.2 mph N/A   Overcast
12:53 PM 59.0 °F - 53.1 °F 81% 29.86 in 7.0 mi SW 13.8 mph - N/A   Overcast
1:53 PM 60.1 °F - 54.0 °F 80% 29.84 in 7.0 mi SW 15.0 mph 20.7 mph 0.00 in   Mostly Cloudy
2:53 PM 61.0 °F - 53.1 °F 75% 29.83 in 9.0 mi SW 21.9 mph 29.9 mph N/A   Overcast
3:28 PM 57.2 °F - 53.6 °F 88% 29.82 in 3.0 mi SW 11.5 mph - 0.04 in Rain Light Rain
3:44 PM 57.2 °F - 53.6 °F 88% 29.82 in 7.0 mi SSW 10.4 mph - 0.05 in Rain Light Rain
3:53 PM 57.9 °F - 54.0 °F 87% 29.82 in 6.0 mi SSW 11.5 mph - 0.05 in Rain Light Rain
4:13 PM 57.2 °F - 53.6 °F 88% 29.81 in 5.0 mi SSW 11.5 mph - 0.00 in Rain Light Rain
4:53 PM 57.0 °F - 54.0 °F 89% 29.81 in 5.0 mi South 8.1 mph - 0.01 in Rain Light Rain
5:29 PM 55.4 °F - 53.6 °F 94% 29.79 in 5.0 mi South 6.9 mph - 0.01 in Thunderstorm Overcast
5:44 PM 55.4 °F - 53.6 °F 94% 29.78 in 5.0 mi South 6.9 mph - 0.01 in   Overcast
5:53 PM 55.9 °F - 53.1 °F 90% 29.79 in 7.0 mi South 8.1 mph - 0.01 in   Overcast
6:21 PM 55.4 °F - 53.6 °F 94% 29.77 in 7.0 mi South 9.2 mph - 0.01 in Thunderstorm Overcast
6:53 PM 55.0 °F - 52.0 °F 89% 29.76 in 6.0 mi South 9.2 mph - 0.01 in   Overcast
7:53 PM 54.0 °F - 51.1 °F 90% 29.76 in 8.0 mi South 8.1 mph - N/A   Overcast
8:53 PM 55.9 °F - 51.1 °F 84% 29.72 in 10.0 mi South 12.7 mph - N/A   Scattered Clouds
9:53 PM 57.9 °F - 50.0 °F 75% 29.68 in 10.0 mi South 16.1 mph - N/A   Clear
10:53 PM 60.1 °F - 50.0 °F 69% 29.64 in 10.0 mi South 18.4 mph 26.5 mph N/A   Mostly Cloudy
11:53 PM 60.1 °F - 52.0 °F 75% 29.60 in 10.0 mi South 19.6 mph 26.5 mph N/A   Clear